DW2817 Weather Reports


time (UTC)temp
F
wind
direction
speed
knots
gust
knots
rain 1hr
in
rain 24hr
in
rain mn
in
humidity
%
barometer
mb
20260507194005 45 290 0.9 2.6 0.00 0.00 0.00 79 1001.7
20260507193005 45 290 0.0 0.9 0.00 0.00 0.00 78 1001.5
20260507192006 45 290 0.0 1.7 0.00 0.00 0.00 78 1001.3
20260507191005 45 290 0.0 1.7 0.00 0.00 0.00 77 1001.3
20260507190006 46 290 0.9 1.7 0.00 0.00 0.00 77 1001.2
20260507185006 46 290 0.9 1.7 0.00 0.00 0.00 76 1001.1
20260507184003 46 290 0.0 1.7 0.00 0.00 0.00 74 1000.9
20260507182003 47 310 0.0 3.5 0.00 0.00 0.00 72 1000.8
20260507181003 48 37 0.9 3.5 0.00 0.00 0.00 71 1000.4
20260507174004 49 156 0.9 5.2 0.00 0.00 0.00 69 1000.1
20260507173003 49 16 1.7 5.2 0.00 0.00 0.00 68 1000.1
20260507172004 50 345 1.7 5.2 0.00 0.00 0.00 67 999.8
20260507171003 51 7 1.7 6.1 0.00 0.00 0.00 66 999.7
20260507170003 52 333 1.7 5.2 0.00 0.00 0.00 62 999.6
20260507165001 54 112 5.2 13.9 0.00 0.00 0.00 61 999.5
20260507163002 55 303 4.3 12.2 0.00 0.00 0.00 53 999.3
20260507162002 56 295 6.1 12.2 0.00 0.00 0.00 49 999.2
20260507161001 58 301 1.7 9.6 0.00 0.00 0.00 50 999.2
20260507160001 58 86 1.7 11.3 0.00 0.00 0.00 48 999.0
20260507154959 55 11 6.1 13.0 0.00 0.00 0.00 55 999.2
20260507153959 53 299 7.0 13.0 0.00 0.00 0.00 58 999.2
20260507152959 54 270 5.2 11.3 0.00 0.00 0.00 57 999.2
20260507152000 54 292 6.1 13.0 0.00 0.00 0.00 56 999.2
20260507151000 55 325 5.2 13.0 0.00 0.00 0.00 54 999.0
20260507145957 55 284 5.2 10.4 0.00 0.00 0.00 45 999.0
20260507144957 56 284 5.2 12.2 0.00 0.00 0.00 48 998.9
20260507143957 56 282 5.2 13.9 0.00 0.00 0.00 50 999.0
20260507142958 57 248 5.2 13.9 0.00 0.00 0.00 50 999.2
20260507141958 56 144 2.6 7.0 0.00 0.00 0.00 49 999.0
20260507141002 56 209 5.2 12.2 0.00 0.00 0.00 45 999.2
20260507135957 57 177 5.2 12.2 0.00 0.00 0.00 49 999.3
20260507134957 56 171 5.2 10.4 0.00 0.00 0.00 47 999.2
20260507133958 57 184 3.5 11.3 0.00 0.00 0.00 49 999.3
20260507132957 56 157 4.3 11.3 0.00 0.00 0.00 53 999.3
20260507131955 57 137 5.2 9.6 0.00 0.02 0.00 50 999.4
20260507125953 58 132 2.6 7.8 0.00 0.11 0.00 62 999.4
20260507124954 56 84 2.6 8.7 0.00 0.15 0.00 64 999.4
20260507123954 58 70 2.6 8.7 0.00 0.18 0.00 65 999.3
20260507122954 58 33 1.7 4.3 0.00 0.22 0.00 67 999.3
20260507121953 58 130 1.7 5.2 0.00 0.24 0.00 63 999.4
20260507115951 55 108 1.7 3.5 0.00 0.26 0.00 70 999.5
20260507114951 52 152 0.9 3.5 0.00 0.27 0.00 70 999.5
20260507113951 51 113 0.9 5.2 0.00 0.28 0.00 69 999.6
20260507112952 51 186 0.9 5.2 0.00 0.28 0.00 70 999.5
20260507111949 51 212 0.9 4.3 0.00 0.28 0.00 70 999.5
20260507110947 51 32 1.7 4.3 0.00 0.29 0.00 69 999.7
20260507105947 51 112 0.9 3.5 0.00 0.30 0.00 71 999.7
20260507103948 50 130 1.7 4.3 0.00 0.32 0.00 68 999.8
20260507102948 50 130 1.7 5.2 0.00 0.33 0.00 69 1000.0
20260507101948 50 154 0.9 3.5 0.00 0.34 0.00 70 1000.0
20260507100935 51 263 1.7 3.5 0.00 0.34 0.00 68 1000.0
20260507095950 50 126 1.7 3.5 0.00 0.34 0.00 68 1000.1
20260507094937 51 99 1.7 6.1 0.00 0.34 0.00 69 1000.0
20260507093936 52 153 2.6 6.1 0.00 0.34 0.00 72 1000.0
20260507092935 51 182 1.7 4.3 0.00 0.34 0.00 74 1000.0
20260507090931 51 138 1.7 6.1 0.00 0.34 0.00 74 999.8
20260507085931 50 278 1.7 6.1 0.00 0.35 0.00 69 999.8
20260507084931 53 40 1.7 5.2 0.00 0.35 0.00 62 999.7
20260507083932 51 13 1.7 5.2 0.00 0.35 0.00 66 999.7
20260507080935 49 105 1.7 4.3 0.00 0.35 0.00 70 999.6
20260507074931 47 165 1.7 4.3 0.00 0.35 0.00 74 999.8
20260507073931 46 138 2.6 4.3 0.00 0.35 0.00 76 999.7
20260507072932 45 146 1.7 3.5 0.00 0.35 0.00 79 999.7
20260507071933 44 178 0.9 2.6 0.00 0.35 0.00 79 999.7
20260507070932 44 155 1.7 3.5 0.00 0.35 0.00 80 999.7
20260507065930 43 128 1.7 3.5 0.00 0.35 0.00 81 999.7
20260507064922 42 140 0.9 3.5 0.00 0.35 0.00 81 999.7
20260507063920 41 172 0.9 1.7 0.00 0.36 0.00 81 999.7
20260507062920 40 172 0.0 1.7 0.00 0.39 0.00 81 999.6
20260507061920 39 172 0.9 1.7 0.00 0.40 0.00 81 999.6
20260507060919 39 172 0.0 1.7 0.00 0.41 0.00 81 999.5
20260507055915 39 172 0.9 1.7 0.00 0.41 0.00 81 999.4
20260507054915 38 172 0.0 1.7 0.00 0.41 0.00 81 999.3
20260507053915 38 172 0.0 1.7 0.00 0.41 0.00 81 999.3
20260507052915 38 172 0.0 1.7 0.00 0.41 0.00 81 999.2
20260507051915 37 172 0.9 1.7 0.00 0.41 0.00 81 999.0
20260507050915 37 172 0.0 1.7 0.00 0.41 0.00 81 998.7
20260507045917 37 172 0.0 2.6 0.00 0.41 0.00 80 998.7
20260507044915 37 172 0.9 2.6 0.00 0.41 0.00 80 998.7
20260507043915 37 172 0.9 2.6 0.00 0.41 0.00 80 998.7
20260507042916 37 172 0.9 1.7 0.00 0.41 0.00 81 998.6
20260507041916 37 172 0.0 1.7 0.00 0.41 0.00 81 998.4
20260507040914 36 172 0.9 1.7 0.00 0.41 0.00 81 998.5
20260507035923 36 172 0.9 2.6 0.00 0.41 0.00 81 998.4
20260507034909 37 172 0.9 2.6 0.00 0.41 0.00 81 998.5
20260507033903 37 184 0.9 3.5 0.00 0.41 0.00 81 998.6
20260507032859 37 213 1.7 3.5 0.00 0.41 0.00 81 998.4
20260507030854 37 161 0.9 2.6 0.00 0.42 0.00 80 998.6
20260507025850 37 161 0.9 3.5 0.00 0.42 0.00 80 998.6
20260507024847 37 161 1.7 3.5 0.00 0.42 0.00 80 998.5
20260507023846 37 201 1.7 3.5 0.00 0.42 0.00 80 998.5
20260507021836 37 224 0.0 1.7 0.00 0.42 0.00 80 998.4
20260507020837 37 224 0.9 1.7 0.00 0.42 0.00 80 998.4
20260507015837 38 235 0.9 2.6 0.00 0.42 0.00 80 998.5
20260507013845 37 176 0.9 4.3 0.00 0.42 0.00 80 998.1
20260507012835 38 174 1.7 4.3 0.00 0.42 0.00 80 998.0
20260507011855 39 282 0.0 0.0 0.00 0.42 0.00 79 998.0
20260507010827 39 282 0.0 0.0 0.00 0.42 0.00 78 998.0
20260507005821 39 282 0.0 0.0 0.00 0.42 0.00 78 998.2
20260507004820 39 282 0.0 0.0 0.00 0.42 0.00 78 998.0
20260507003815 39 282 0.0 0.0 0.00 0.42 0.00 78 998.0
20260507002759 39 282 0.0 0.0 0.00 0.43 0.00 78 998.0
20260507001812 39 282 0.0 0.0 0.00 0.43 0.00 78 997.8
20260507000807 39 283 0.0 0.0 0.00 0.43 0.00 77 997.9
20260506235806 39 178 0.0 0.0 0.00 0.43 0.00 78 997.9
20260506234746 40 178 0.0 0.0 0.00 0.43 0.00 78 997.9
20260506231754 40 178 0.0 0.0 0.00 0.43 0.00 76 998.0
20260506230751 40 179 0.0 0.0 0.00 0.43 0.00 76 997.9
20260506225750 40 179 0.0 0.0 0.00 0.43 0.00 76 997.5
20260506224725 40 179 0.0 0.0 0.00 0.43 0.00 76 997.8
20260506223719 40 226 0.0 0.0 0.00 0.43 0.00 76 997.7
20260506222715 40 174 0.0 0.0 0.00 0.44 0.00 76 997.5
20260506220713 41 174 0.0 0.0 0.00 0.44 0.00 77 997.5
20260506215710 40 174 0.0 0.0 0.00 0.44 0.44 78 997.5
20260506214703 41 174 0.0 0.0 0.00 0.44 0.44 78 997.5
20260506213658 41 174 0.0 0.0 0.00 0.44 0.44 78 997.4
20260506212656 41 174 0.0 0.0 0.00 0.44 0.44 78 997.5
20260506211652 41 174 0.0 0.0 0.00 0.44 0.44 79 997.5
20260506205648 41 174 0.0 0.0 0.00 0.45 0.44 79 997.3
20260506204642 42 174 0.0 0.0 0.00 0.45 0.44 79 997.2
20260506203642 42 174 0.0 0.0 0.00 0.45 0.44 79 997.3
20260506202642 42 174 0.0 0.0 0.00 0.45 0.44 79 997.2
20260506201656 41 174 0.0 3.5 0.00 0.45 0.44 79 997.1
20260506200651 41 174 0.9 3.5 0.00 0.45 0.44 79 997.1
20260506195657 41 246 0.9 2.6 0.00 0.45 0.44 79 997.0
20260506194653 41 246 0.9 2.6 0.00 0.45 0.44 79 996.9